Year,Month,Day,Hour,Minute,Value (Times are PST for windspeed in km/hr)
2012,10,17,00,00,0.50
2012,10,17,00,01,0.30
2012,10,17,00,02,0.00
2012,10,17,00,03,0.10
2012,10,17,00,04,1.00
2012,10,17,00,05,0.10
2012,10,17,00,06,0.10
2012,10,17,00,07,0.10
2012,10,17,00,08,0.00
2012,10,17,00,09,0.20
2012,10,17,00,10,0.20
2012,10,17,00,11,0.30
2012,10,17,00,12,1.40
2012,10,17,00,13,0.60
2012,10,17,00,14,3.50
2012,10,17,00,15,3.30
2012,10,17,00,16,3.20
2012,10,17,00,17,4.70
2012,10,17,00,18,1.00
2012,10,17,00,19,2.40
2012,10,17,00,20,1.70
2012,10,17,00,21,0.90
2012,10,17,00,22,1.70
2012,10,17,00,23,1.40
2012,10,17,00,24,0.20
2012,10,17,00,25,1.00
2012,10,17,00,26,0.50
2012,10,17,00,27,1.00
2012,10,17,00,28,0.10
2012,10,17,00,29,0.60
2012,10,17,00,30,2.10
2012,10,17,00,31,3.10
2012,10,17,00,32,0.60
2012,10,17,00,33,0.70
2012,10,17,00,34,0.00
2012,10,17,00,35,0.00
2012,10,17,00,36,0.00
2012,10,17,00,37,1.70
2012,10,17,00,38,0.00
2012,10,17,00,39,1.30
2012,10,17,00,40,1.30
2012,10,17,00,41,0.40
2012,10,17,00,42,0.10
2012,10,17,00,43,1.90
2012,10,17,00,44,1.80
2012,10,17,00,45,1.80
2012,10,17,00,46,1.30
2012,10,17,00,47,0.10
2012,10,17,00,48,0.60
2012,10,17,00,49,0.70
2012,10,17,00,50,3.30
2012,10,17,00,51,0.70
2012,10,17,00,52,1.30
2012,10,17,00,53,2.30
2012,10,17,00,54,2.60
2012,10,17,00,55,4.70
2012,10,17,00,56,4.70
2012,10,17,00,57,2.90
2012,10,17,00,58,3.00
2012,10,17,00,59,3.20
2012,10,17,01,00,2.50
2012,10,17,01,01,1.00
2012,10,17,01,02,0.40
2012,10,17,01,03,0.20
2012,10,17,01,04,1.30
2012,10,17,01,05,0.90
2012,10,17,01,06,4.80
2012,10,17,01,07,6.10
2012,10,17,01,08,4.20
2012,10,17,01,09,2.60
2012,10,17,01,10,5.30
2012,10,17,01,11,4.30
2012,10,17,01,12,9.10
2012,10,17,01,13,9.70
2012,10,17,01,14,5.70
2012,10,17,01,15,3.70
2012,10,17,01,16,5.80
2012,10,17,01,17,9.00
2012,10,17,01,18,5.70
2012,10,17,01,19,4.70
2012,10,17,01,20,8.00
2012,10,17,01,21,7.20
2012,10,17,01,22,6.10
2012,10,17,01,23,3.40
2012,10,17,01,24,3.20
2012,10,17,01,25,6.80
2012,10,17,01,26,4.20
2012,10,17,01,27,4.70
2012,10,17,01,28,3.90
2012,10,17,01,29,2.90
2012,10,17,01,30,3.10
2012,10,17,01,31,3.00
2012,10,17,01,32,3.00
2012,10,17,01,33,3.80
2012,10,17,01,34,6.00
2012,10,17,01,35,4.20
2012,10,17,01,36,5.00
2012,10,17,01,37,6.60
2012,10,17,01,38,3.20
2012,10,17,01,39,4.00
2012,10,17,01,40,3.50
2012,10,17,01,41,6.80
2012,10,17,01,42,4.70
2012,10,17,01,43,6.00
2012,10,17,01,44,5.90
2012,10,17,01,45,6.30
2012,10,17,01,46,3.40
2012,10,17,01,47,1.60
2012,10,17,01,48,7.80
2012,10,17,01,49,5.50
2012,10,17,01,50,3.70
2012,10,17,01,51,8.90
2012,10,17,01,52,4.30
2012,10,17,01,53,5.80
2012,10,17,01,54,7.20
2012,10,17,01,55,3.80
2012,10,17,01,56,4.00
2012,10,17,01,57,4.30
2012,10,17,01,58,4.10
2012,10,17,01,59,10.10
2012,10,17,02,00,7.50
2012,10,17,02,01,7.70
2012,10,17,02,02,12.70
2012,10,17,02,03,3.10
2012,10,17,02,04,5.00
2012,10,17,02,05,9.00
2012,10,17,02,06,8.10
2012,10,17,02,07,3.90
2012,10,17,02,08,4.10
2012,10,17,02,09,5.80
2012,10,17,02,10,2.80
2012,10,17,02,11,4.20
2012,10,17,02,12,5.40
2012,10,17,02,13,3.10
2012,10,17,02,14,2.30
2012,10,17,02,15,6.80
2012,10,17,02,16,5.60
2012,10,17,02,17,2.20
2012,10,17,02,18,2.40
2012,10,17,02,19,4.50
2012,10,17,02,20,2.80
2012,10,17,02,21,3.80
2012,10,17,02,22,5.70
2012,10,17,02,23,5.60
2012,10,17,02,24,4.40
2012,10,17,02,25,3.80
2012,10,17,02,26,5.40
2012,10,17,02,27,3.20
2012,10,17,02,28,1.30
2012,10,17,02,29,5.60
2012,10,17,02,30,3.10
2012,10,17,02,31,3.90
2012,10,17,02,32,3.30
2012,10,17,02,33,3.20
2012,10,17,02,34,5.30
2012,10,17,02,35,6.60
2012,10,17,02,36,4.00
2012,10,17,02,37,1.40
2012,10,17,02,38,4.60
2012,10,17,02,39,5.40
2012,10,17,02,40,5.40
2012,10,17,02,41,1.80
2012,10,17,02,42,3.20
2012,10,17,02,43,1.60
2012,10,17,02,44,1.70
2012,10,17,02,45,0.30
2012,10,17,02,46,5.30
2012,10,17,02,47,2.50
2012,10,17,02,48,3.60
2012,10,17,02,49,3.50
2012,10,17,02,50,1.90
2012,10,17,02,51,1.30
2012,10,17,02,52,1.90
2012,10,17,02,53,3.90
2012,10,17,02,54,2.20
2012,10,17,02,55,1.20
2012,10,17,02,56,0.80
2012,10,17,02,57,1.40
2012,10,17,02,58,0.90
2012,10,17,02,59,0.50
2012,10,17,03,00,1.20
2012,10,17,03,01,4.20
2012,10,17,03,02,6.30
2012,10,17,03,03,2.50
2012,10,17,03,04,5.50
2012,10,17,03,05,5.00
2012,10,17,03,06,2.20
2012,10,17,03,07,2.00
2012,10,17,03,08,5.60
2012,10,17,03,09,7.50
2012,10,17,03,10,4.60
2012,10,17,03,11,7.60
2012,10,17,03,12,4.50
2012,10,17,03,13,2.30
2012,10,17,03,14,4.30
2012,10,17,03,15,3.90
2012,10,17,03,16,5.20
2012,10,17,03,17,3.90
2012,10,17,03,18,4.30
2012,10,17,03,19,3.40
2012,10,17,03,20,3.20
2012,10,17,03,21,4.30
2012,10,17,03,22,1.50
2012,10,17,03,23,2.60
2012,10,17,03,24,2.00
2012,10,17,03,25,2.30
2012,10,17,03,26,1.50
2012,10,17,03,27,1.50
2012,10,17,03,28,0.20
2012,10,17,03,29,3.00
2012,10,17,03,30,0.60
2012,10,17,03,31,3.30
2012,10,17,03,32,0.10
2012,10,17,03,33,3.00
2012,10,17,03,34,0.90
2012,10,17,03,35,0.40
2012,10,17,03,36,0.40
2012,10,17,03,37,0.80
2012,10,17,03,38,2.80
2012,10,17,03,39,2.20
2012,10,17,03,40,0.50
2012,10,17,03,41,1.70
2012,10,17,03,42,3.40
2012,10,17,03,43,4.90
2012,10,17,03,44,5.00
2012,10,17,03,45,4.70
2012,10,17,03,46,3.90
2012,10,17,03,47,6.00
2012,10,17,03,48,0.90
2012,10,17,03,49,1.90
2012,10,17,03,50,2.90
2012,10,17,03,51,1.70
2012,10,17,03,52,5.60
2012,10,17,03,53,4.80
2012,10,17,03,54,6.00
2012,10,17,03,55,4.30
2012,10,17,03,56,4.50
2012,10,17,03,57,5.60
2012,10,17,03,58,3.80
2012,10,17,03,59,3.10
2012,10,17,04,00,8.00
2012,10,17,04,01,8.40
2012,10,17,04,02,5.60
2012,10,17,04,03,2.60
2012,10,17,04,04,4.00
2012,10,17,04,05,3.20
2012,10,17,04,06,2.00
2012,10,17,04,07,3.90
2012,10,17,04,08,5.00
2012,10,17,04,09,5.30
2012,10,17,04,10,6.50
2012,10,17,04,11,3.10
2012,10,17,04,12,4.90
2012,10,17,04,13,3.00
2012,10,17,04,14,3.30
2012,10,17,04,15,6.00
2012,10,17,04,16,2.90
2012,10,17,04,17,4.20
2012,10,17,04,18,6.20
2012,10,17,04,19,7.10
2012,10,17,04,20,7.40
2012,10,17,04,21,7.50
2012,10,17,04,22,6.90
2012,10,17,04,23,7.70
2012,10,17,04,24,2.70
2012,10,17,04,25,4.00
2012,10,17,04,26,6.90
2012,10,17,04,27,9.80
2012,10,17,04,28,7.50
2012,10,17,04,29,13.20
2012,10,17,04,30,7.20
2012,10,17,04,31,10.00
2012,10,17,04,32,9.20
2012,10,17,04,33,11.70
2012,10,17,04,34,4.90
2012,10,17,04,35,6.80
2012,10,17,04,36,4.30
2012,10,17,04,37,5.70
2012,10,17,04,38,8.40
2012,10,17,04,39,11.60
2012,10,17,04,40,8.20
2012,10,17,04,41,16.30
2012,10,17,04,42,11.80
2012,10,17,04,43,12.40
2012,10,17,04,44,11.40
2012,10,17,04,45,10.20
2012,10,17,04,46,11.40
2012,10,17,04,47,5.60
2012,10,17,04,48,10.00
2012,10,17,04,49,6.90
2012,10,17,04,50,7.70
2012,10,17,04,51,10.50
2012,10,17,04,52,12.20
2012,10,17,04,53,11.20
2012,10,17,04,54,9.50
2012,10,17,04,55,11.30
2012,10,17,04,56,8.80
2012,10,17,04,57,10.90
2012,10,17,04,58,6.30
2012,10,17,04,59,9.60
2012,10,17,05,00,9.30
2012,10,17,05,01,7.90
2012,10,17,05,02,13.30
2012,10,17,05,03,9.60
2012,10,17,05,04,11.30
2012,10,17,05,05,8.90
2012,10,17,05,06,5.80
2012,10,17,05,07,7.10
2012,10,17,05,08,10.30
2012,10,17,05,09,8.00
2012,10,17,05,10,10.80
2012,10,17,05,11,11.50
2012,10,17,05,12,9.10
2012,10,17,05,13,10.20
2012,10,17,05,14,8.00
2012,10,17,05,15,7.70
2012,10,17,05,16,9.50
2012,10,17,05,17,7.60
2012,10,17,05,18,9.10
2012,10,17,05,19,8.30
2012,10,17,05,20,8.40
2012,10,17,05,21,10.30
2012,10,17,05,22,10.20
2012,10,17,05,23,6.00
2012,10,17,05,24,6.50
2012,10,17,05,25,6.00
2012,10,17,05,26,5.00
2012,10,17,05,27,10.10
2012,10,17,05,28,7.00
2012,10,17,05,29,6.40
2012,10,17,05,30,4.70
2012,10,17,05,31,4.90
2012,10,17,05,32,10.00
2012,10,17,05,33,9.70
2012,10,17,05,34,6.70
2012,10,17,05,35,13.70
2012,10,17,05,36,10.00
2012,10,17,05,37,14.10
2012,10,17,05,38,10.00
2012,10,17,05,39,9.40
2012,10,17,05,40,7.30
2012,10,17,05,41,5.00
2012,10,17,05,42,9.00
2012,10,17,05,43,7.50
2012,10,17,05,44,6.20
2012,10,17,05,45,5.10
2012,10,17,05,46,5.20
2012,10,17,05,47,9.50
2012,10,17,05,48,6.10
2012,10,17,05,49,4.80
2012,10,17,05,50,4.80
2012,10,17,05,51,4.80
2012,10,17,05,52,4.80
2012,10,17,05,53,4.80
2012,10,17,05,54,4.80
2012,10,17,05,55,7.00
2012,10,17,05,56,3.90
2012,10,17,05,57,7.40
2012,10,17,05,58,6.10
2012,10,17,05,59,3.80
2012,10,17,06,00,4.30
2012,10,17,06,01,3.50
2012,10,17,06,02,3.80
2012,10,17,06,03,4.60
2012,10,17,06,04,3.30
2012,10,17,06,05,3.80
2012,10,17,06,06,1.10
2012,10,17,06,07,1.30
2012,10,17,06,08,4.50
2012,10,17,06,09,5.80
2012,10,17,06,10,4.00
2012,10,17,06,11,6.00
2012,10,17,06,12,5.90
2012,10,17,06,13,6.10
2012,10,17,06,14,2.70
2012,10,17,06,15,9.30
2012,10,17,06,16,7.30
2012,10,17,06,17,2.20
2012,10,17,06,18,5.80
2012,10,17,06,19,4.20
2012,10,17,06,20,3.80
2012,10,17,06,21,2.70
2012,10,17,06,22,3.90
2012,10,17,06,23,2.80
2012,10,17,06,24,6.50
2012,10,17,06,25,3.10
2012,10,17,06,26,2.50
2012,10,17,06,27,6.00
2012,10,17,06,28,0.20
2012,10,17,06,29,0.40
2012,10,17,06,30,0.00
2012,10,17,06,31,0.00
2012,10,17,06,32,0.00
2012,10,17,06,33,0.00
2012,10,17,06,34,0.00
2012,10,17,06,35,0.00
2012,10,17,06,36,0.00
2012,10,17,06,37,0.00
2012,10,17,06,38,0.00
2012,10,17,06,39,0.40
2012,10,17,06,40,0.00
2012,10,17,06,41,0.10
2012,10,17,06,42,0.00
2012,10,17,06,43,0.00
2012,10,17,06,44,0.10
2012,10,17,06,45,0.60
2012,10,17,06,46,0.00
2012,10,17,06,47,0.10
2012,10,17,06,48,0.00
2012,10,17,06,49,0.00
2012,10,17,06,50,0.00
2012,10,17,06,51,0.00
2012,10,17,06,52,0.00
2012,10,17,06,53,0.00
2012,10,17,06,54,0.00
2012,10,17,06,55,0.00
2012,10,17,06,56,0.00
2012,10,17,06,57,0.00
2012,10,17,06,58,0.00
2012,10,17,06,59,0.00
2012,10,17,07,00,0.00
2012,10,17,07,01,0.00
2012,10,17,07,02,0.00
2012,10,17,07,03,0.00
2012,10,17,07,04,0.00
2012,10,17,07,05,0.00
2012,10,17,07,06,0.00
2012,10,17,07,07,0.00
2012,10,17,07,08,0.00
2012,10,17,07,09,0.00
2012,10,17,07,10,0.00
2012,10,17,07,11,0.00
2012,10,17,07,12,0.00
2012,10,17,07,13,0.00
2012,10,17,07,14,0.00
2012,10,17,07,15,0.00
2012,10,17,07,16,0.00
2012,10,17,07,17,0.00
2012,10,17,07,18,0.00
2012,10,17,07,19,0.00
2012,10,17,07,20,0.00
2012,10,17,07,21,0.00
2012,10,17,07,22,0.00
2012,10,17,07,23,0.00
2012,10,17,07,24,0.00
2012,10,17,07,25,0.00
2012,10,17,07,26,0.00
2012,10,17,07,27,0.00
2012,10,17,07,28,0.00
2012,10,17,07,29,0.00
2012,10,17,07,30,0.00
2012,10,17,07,31,0.00
2012,10,17,07,32,0.00
2012,10,17,07,33,0.00
2012,10,17,07,34,0.00
2012,10,17,07,35,0.00
2012,10,17,07,36,0.00
2012,10,17,07,37,0.00
2012,10,17,07,38,0.00
2012,10,17,07,39,0.00
2012,10,17,07,40,0.00
2012,10,17,07,41,0.00
2012,10,17,07,42,0.00
2012,10,17,07,43,0.00
2012,10,17,07,44,0.00
2012,10,17,07,45,0.00
2012,10,17,07,46,0.00
2012,10,17,07,47,0.00
2012,10,17,07,48,0.00
2012,10,17,07,49,0.00
2012,10,17,07,50,0.00
2012,10,17,07,51,0.00
2012,10,17,07,52,0.00
2012,10,17,07,53,1.70
2012,10,17,07,54,0.00
2012,10,17,07,55,0.00
2012,10,17,07,56,0.00
2012,10,17,07,57,0.00
2012,10,17,07,58,0.00
2012,10,17,07,59,0.00
2012,10,17,08,00,0.00
2012,10,17,08,01,0.00
2012,10,17,08,02,0.80
2012,10,17,08,03,2.10
2012,10,17,08,04,0.00
2012,10,17,08,05,0.10
2012,10,17,08,06,1.20
2012,10,17,08,07,2.90
2012,10,17,08,08,1.70
2012,10,17,08,09,1.40
2012,10,17,08,10,0.20
2012,10,17,08,11,1.10
2012,10,17,08,12,0.10
2012,10,17,08,13,0.00
2012,10,17,08,14,0.20
2012,10,17,08,15,0.00
2012,10,17,08,16,0.10
2012,10,17,08,17,0.00
2012,10,17,08,18,0.00
2012,10,17,08,19,0.00
2012,10,17,08,20,0.00
2012,10,17,08,21,0.10
2012,10,17,08,22,0.00
2012,10,17,08,23,0.00
2012,10,17,08,24,0.00
2012,10,17,08,25,0.00
2012,10,17,08,26,0.40
2012,10,17,08,27,3.90
2012,10,17,08,28,1.20
2012,10,17,08,29,2.10
2012,10,17,08,30,0.50
2012,10,17,08,31,1.00
2012,10,17,08,32,0.00
2012,10,17,08,33,0.00
2012,10,17,08,34,0.10
2012,10,17,08,35,0.10
2012,10,17,08,36,0.00
2012,10,17,08,37,1.00
2012,10,17,08,38,0.30
2012,10,17,08,39,0.60
2012,10,17,08,40,0.00
2012,10,17,08,41,1.00
2012,10,17,08,42,1.00
2012,10,17,08,43,0.10
2012,10,17,08,44,0.20
2012,10,17,08,45,2.00
2012,10,17,08,46,1.90
2012,10,17,08,47,2.40
2012,10,17,08,48,5.90
2012,10,17,08,49,4.30
2012,10,17,08,50,4.30
2012,10,17,08,51,1.90
2012,10,17,08,52,1.40
2012,10,17,08,53,5.80
2012,10,17,08,54,5.10
2012,10,17,08,55,1.40
2012,10,17,08,56,1.40
2012,10,17,08,57,2.60
2012,10,17,08,58,2.60
2012,10,17,08,59,1.90
2012,10,17,09,00,2.30
2012,10,17,09,01,2.30
2012,10,17,09,02,1.50
2012,10,17,09,03,3.00
2012,10,17,09,04,4.70
2012,10,17,09,05,1.70
2012,10,17,09,06,2.60
2012,10,17,09,07,1.80
2012,10,17,09,08,3.80
2012,10,17,09,09,0.70
2012,10,17,09,10,1.90
2012,10,17,09,11,2.20
2012,10,17,09,12,4.60
2012,10,17,09,13,5.50
2012,10,17,09,14,2.90
2012,10,17,09,15,4.80
2012,10,17,09,16,4.30
2012,10,17,09,17,4.00
2012,10,17,09,18,2.60
2012,10,17,09,19,3.20
2012,10,17,09,20,2.30
2012,10,17,09,21,2.10
2012,10,17,09,22,2.90
2012,10,17,09,23,5.90
2012,10,17,09,24,0.60
2012,10,17,09,25,5.40
2012,10,17,09,26,3.60
2012,10,17,09,27,3.20
2012,10,17,09,28,2.40
2012,10,17,09,29,4.70
2012,10,17,09,30,3.60
2012,10,17,09,31,1.00
2012,10,17,09,32,1.10
2012,10,17,09,33,1.50
2012,10,17,09,34,1.60
2012,10,17,09,35,0.90
2012,10,17,09,36,0.90
2012,10,17,09,37,0.00
2012,10,17,09,38,0.10
2012,10,17,09,39,1.20
2012,10,17,09,40,0.70
2012,10,17,09,41,3.10
2012,10,17,09,42,4.20
2012,10,17,09,43,4.90
2012,10,17,09,44,2.40
2012,10,17,09,45,2.70
2012,10,17,09,46,0.50
2012,10,17,09,47,0.50
2012,10,17,09,48,0.60
2012,10,17,09,49,0.80
2012,10,17,09,50,0.20
2012,10,17,09,51,0.20
2012,10,17,09,52,0.10
2012,10,17,09,53,2.70
2012,10,17,09,54,3.50
2012,10,17,09,55,0.40
2012,10,17,09,56,0.50
2012,10,17,09,57,1.10
2012,10,17,09,58,2.10
2012,10,17,09,59,2.10
2012,10,17,10,00,0.80
2012,10,17,10,01,2.50
2012,10,17,10,02,2.60
2012,10,17,10,03,0.00
2012,10,17,10,04,2.20
2012,10,17,10,05,0.00
2012,10,17,10,06,0.00
2012,10,17,10,07,2.70
2012,10,17,10,08,3.00
2012,10,17,10,09,3.40
2012,10,17,10,10,3.60
2012,10,17,10,11,6.10
2012,10,17,10,12,5.00
2012,10,17,10,13,1.20
2012,10,17,10,14,5.20
2012,10,17,10,15,2.90
2012,10,17,10,16,1.90
2012,10,17,10,17,1.30
2012,10,17,10,18,1.90
2012,10,17,10,19,2.20
2012,10,17,10,20,1.10
2012,10,17,10,21,0.90
2012,10,17,10,22,0.20
2012,10,17,10,23,0.00
2012,10,17,10,24,0.00
2012,10,17,10,25,0.00
2012,10,17,10,26,0.00
2012,10,17,10,27,1.10
2012,10,17,10,28,0.40
2012,10,17,10,29,0.00
2012,10,17,10,30,0.60
2012,10,17,10,31,2.30
2012,10,17,10,32,0.30
2012,10,17,10,33,0.00
2012,10,17,10,34,1.20
2012,10,17,10,35,0.10
2012,10,17,10,36,0.30
2012,10,17,10,37,0.00
2012,10,17,10,38,0.20
2012,10,17,10,39,1.00
2012,10,17,10,40,0.10
2012,10,17,10,41,0.20
2012,10,17,10,42,0.10
2012,10,17,10,43,0.10
2012,10,17,10,44,0.10
2012,10,17,10,45,0.90
2012,10,17,10,46,0.20
2012,10,17,10,47,0.00
2012,10,17,10,48,0.20
2012,10,17,10,49,0.20
2012,10,17,10,50,0.40
2012,10,17,10,51,2.90
2012,10,17,10,52,0.70
2012,10,17,10,53,0.60
2012,10,17,10,54,0.40
2012,10,17,10,55,0.30
2012,10,17,10,56,0.00
2012,10,17,10,57,0.50
2012,10,17,10,58,1.00
2012,10,17,10,59,1.00
2012,10,17,11,00,0.20
2012,10,17,11,01,0.00
2012,10,17,11,02,0.00
2012,10,17,11,03,0.00
2012,10,17,11,04,1.30
2012,10,17,11,05,0.20
2012,10,17,11,06,0.10
2012,10,17,11,07,0.10
2012,10,17,11,08,0.00
2012,10,17,11,09,0.00
2012,10,17,11,10,1.40
2012,10,17,11,11,2.30
2012,10,17,11,12,1.80
2012,10,17,11,13,0.60
2012,10,17,11,14,0.90
2012,10,17,11,15,0.20
2012,10,17,11,16,0.00
2012,10,17,11,17,0.00
2012,10,17,11,18,0.10
2012,10,17,11,19,0.20
2012,10,17,11,20,0.30
2012,10,17,11,21,0.10
2012,10,17,11,22,0.20
2012,10,17,11,23,0.00
2012,10,17,11,24,0.00
2012,10,17,11,25,0.00
2012,10,17,11,26,0.10
2012,10,17,11,27,0.40
2012,10,17,11,28,0.10
2012,10,17,11,29,0.00
2012,10,17,11,30,0.00
2012,10,17,11,31,0.40
2012,10,17,11,32,0.20
2012,10,17,11,33,0.00
2012,10,17,11,34,0.40
2012,10,17,11,35,0.40
2012,10,17,11,36,0.20
2012,10,17,11,37,0.00
2012,10,17,11,38,0.20
2012,10,17,11,39,1.00
2012,10,17,11,40,0.30
2012,10,17,11,41,0.10
2012,10,17,11,42,0.20
2012,10,17,11,43,0.00
2012,10,17,11,44,0.10
2012,10,17,11,45,0.20
2012,10,17,11,46,0.30
2012,10,17,11,47,0.30
2012,10,17,11,48,0.20
2012,10,17,11,49,0.10
2012,10,17,11,50,0.10
2012,10,17,11,51,0.00
2012,10,17,11,52,1.00
2012,10,17,11,53,1.50
2012,10,17,11,54,0.50
2012,10,17,11,55,0.20
2012,10,17,11,56,0.70
2012,10,17,11,57,0.30
2012,10,17,11,58,0.60
2012,10,17,11,59,0.40
2012,10,17,12,00,0.10
2012,10,17,12,01,0.90
2012,10,17,12,02,0.20
2012,10,17,12,03,0.00
2012,10,17,12,04,0.80
2012,10,17,12,05,1.10
2012,10,17,12,06,0.40
2012,10,17,12,07,1.40
2012,10,17,12,08,0.70
2012,10,17,12,09,0.60
2012,10,17,12,10,0.80
2012,10,17,12,11,1.10
2012,10,17,12,12,0.20
2012,10,17,12,13,0.10
2012,10,17,12,14,0.10
2012,10,17,12,15,0.10
2012,10,17,12,16,0.10
2012,10,17,12,17,1.10
2012,10,17,12,18,1.70
2012,10,17,12,19,0.80
2012,10,17,12,20,0.80
2012,10,17,12,21,0.50
2012,10,17,12,22,0.50
2012,10,17,12,23,0.30
2012,10,17,12,24,1.90
2012,10,17,12,25,0.40
2012,10,17,12,26,1.10
2012,10,17,12,27,1.30
2012,10,17,12,28,0.90
2012,10,17,12,29,1.30
2012,10,17,12,30,0.20
2012,10,17,12,31,1.00
2012,10,17,12,32,3.00
2012,10,17,12,33,0.60
2012,10,17,12,34,1.60
2012,10,17,12,35,6.00
2012,10,17,12,36,6.40
2012,10,17,12,37,1.90
2012,10,17,12,38,5.80
2012,10,17,12,39,3.90
2012,10,17,12,40,8.10
2012,10,17,12,41,7.10
2012,10,17,12,42,5.00
2012,10,17,12,43,6.10
2012,10,17,12,44,5.90
2012,10,17,12,45,4.90
2012,10,17,12,46,5.40
2012,10,17,12,47,5.80
2012,10,17,12,48,6.90
2012,10,17,12,49,3.10
2012,10,17,12,50,6.20
2012,10,17,12,51,4.40
2012,10,17,12,52,7.80
2012,10,17,12,53,7.00
2012,10,17,12,54,7.40
2012,10,17,12,55,5.20
2012,10,17,12,56,2.40
2012,10,17,12,57,4.30
2012,10,17,12,58,3.70
2012,10,17,12,59,2.10
2012,10,17,13,00,1.50
2012,10,17,13,01,5.70
2012,10,17,13,02,6.30
2012,10,17,13,03,3.10
2012,10,17,13,04,1.30
2012,10,17,13,05,1.20
2012,10,17,13,06,0.40
2012,10,17,13,07,2.70
2012,10,17,13,08,1.30
2012,10,17,13,09,0.50
2012,10,17,13,10,1.40
2012,10,17,13,11,2.20
2012,10,17,13,12,4.20
2012,10,17,13,13,4.80
2012,10,17,13,14,5.00
2012,10,17,13,15,3.50
2012,10,17,13,16,5.60
2012,10,17,13,17,6.70
2012,10,17,13,18,4.60
2012,10,17,13,19,5.20
2012,10,17,13,20,5.50
2012,10,17,13,21,4.10
2012,10,17,13,22,2.60
2012,10,17,13,23,2.30
2012,10,17,13,24,3.20
2012,10,17,13,25,3.70
2012,10,17,13,26,3.00
2012,10,17,13,27,2.20
2012,10,17,13,28,1.80
2012,10,17,13,29,2.30
2012,10,17,13,30,2.00
2012,10,17,13,31,5.40
2012,10,17,13,32,4.70
2012,10,17,13,33,4.90
2012,10,17,13,34,6.70
2012,10,17,13,35,1.10
2012,10,17,13,36,2.40
2012,10,17,13,37,5.90
2012,10,17,13,38,7.60
2012,10,17,13,39,8.10
2012,10,17,13,40,4.50
2012,10,17,13,41,8.70
2012,10,17,13,42,4.10
2012,10,17,13,43,2.60
2012,10,17,13,44,5.40
2012,10,17,13,45,2.20
2012,10,17,13,46,3.00
2012,10,17,13,47,0.60
2012,10,17,13,48,0.50
2012,10,17,13,49,2.30
2012,10,17,13,50,0.00
2012,10,17,13,51,1.60
2012,10,17,13,52,2.30
2012,10,17,13,53,0.60
2012,10,17,13,54,3.10
2012,10,17,13,55,5.90
2012,10,17,13,56,4.70
2012,10,17,13,57,2.10
2012,10,17,13,58,2.70
2012,10,17,13,59,6.90
2012,10,17,14,00,4.50
2012,10,17,14,01,0.40
2012,10,17,14,02,4.60
2012,10,17,14,03,3.30
2012,10,17,14,04,4.70
2012,10,17,14,05,4.20
2012,10,17,14,06,3.20
2012,10,17,14,07,3.30
2012,10,17,14,08,7.20
2012,10,17,14,09,8.00
2012,10,17,14,10,3.30
2012,10,17,14,11,4.50
2012,10,17,14,12,4.10
2012,10,17,14,13,0.80
2012,10,17,14,14,0.60
2012,10,17,14,15,0.70
2012,10,17,14,16,3.00
2012,10,17,14,17,5.90
2012,10,17,14,18,6.30
2012,10,17,14,19,6.80
2012,10,17,14,20,6.50
2012,10,17,14,21,7.90
2012,10,17,14,22,7.90
2012,10,17,14,23,6.20
2012,10,17,14,24,4.40
2012,10,17,14,25,4.60
2012,10,17,14,26,7.60
2012,10,17,14,27,8.40
2012,10,17,14,28,7.30
2012,10,17,14,29,6.80
2012,10,17,14,30,3.50
2012,10,17,14,31,2.70
2012,10,17,14,32,4.60
2012,10,17,14,33,7.40
2012,10,17,14,34,5.30
2012,10,17,14,35,4.80
2012,10,17,14,36,3.90
2012,10,17,14,37,3.30
2012,10,17,14,38,0.40
2012,10,17,14,39,1.70
2012,10,17,14,40,3.30
2012,10,17,14,41,3.20
2012,10,17,14,42,3.00
2012,10,17,14,43,4.20
2012,10,17,14,44,6.10
2012,10,17,14,45,1.40
2012,10,17,14,46,2.20
2012,10,17,14,47,6.10
2012,10,17,14,48,6.20
2012,10,17,14,49,5.70
2012,10,17,14,50,4.60
2012,10,17,14,51,2.30
2012,10,17,14,52,2.10
2012,10,17,14,53,0.60
2012,10,17,14,54,3.40
2012,10,17,14,55,4.80
2012,10,17,14,56,2.90
2012,10,17,14,57,3.00
2012,10,17,14,58,0.20
2012,10,17,14,59,0.90
2012,10,17,15,00,3.90
2012,10,17,15,01,1.00
2012,10,17,15,02,3.50
2012,10,17,15,03,4.10
2012,10,17,15,04,5.50
2012,10,17,15,05,8.10
2012,10,17,15,06,4.30
2012,10,17,15,07,7.30
2012,10,17,15,08,9.30
2012,10,17,15,09,6.50
2012,10,17,15,10,7.30
2012,10,17,15,11,4.40
2012,10,17,15,12,3.50
2012,10,17,15,13,7.50
2012,10,17,15,14,6.10
2012,10,17,15,15,8.50
2012,10,17,15,16,5.40
2012,10,17,15,17,7.70
2012,10,17,15,18,7.50
2012,10,17,15,19,6.90
2012,10,17,15,20,8.10
2012,10,17,15,21,6.80
2012,10,17,15,22,4.30
2012,10,17,15,23,5.40
2012,10,17,15,24,5.90
2012,10,17,15,25,6.50
2012,10,17,15,26,7.70
2012,10,17,15,27,5.60
2012,10,17,15,28,3.40
2012,10,17,15,29,4.50
2012,10,17,15,30,2.60
2012,10,17,15,31,4.00
2012,10,17,15,32,4.10
2012,10,17,15,33,4.60
2012,10,17,15,34,5.70
2012,10,17,15,35,3.70
2012,10,17,15,36,2.60
2012,10,17,15,37,5.70
2012,10,17,15,38,6.10
2012,10,17,15,39,2.60
2012,10,17,15,40,2.70
2012,10,17,15,41,5.80
2012,10,17,15,42,3.40
2012,10,17,15,43,3.20
2012,10,17,15,44,4.50
2012,10,17,15,45,3.60
2012,10,17,15,46,1.30
2012,10,17,15,47,0.70
2012,10,17,15,48,3.30
2012,10,17,15,49,1.90
2012,10,17,15,50,2.40
2012,10,17,15,51,1.80
2012,10,17,15,52,0.10
2012,10,17,15,53,4.30
2012,10,17,15,54,8.60
2012,10,17,15,55,8.80
2012,10,17,15,56,6.80
2012,10,17,15,57,5.90
2012,10,17,15,58,7.70
2012,10,17,15,59,6.30
2012,10,17,16,00,4.50
2012,10,17,16,01,4.50
2012,10,17,16,02,3.10
2012,10,17,16,03,2.30
2012,10,17,16,04,1.50
2012,10,17,16,05,6.70
2012,10,17,16,06,2.00
2012,10,17,16,07,0.90
2012,10,17,16,08,3.90
2012,10,17,16,09,2.70
2012,10,17,16,10,0.60
2012,10,17,16,11,3.60
2012,10,17,16,12,3.40
2012,10,17,16,13,1.90
2012,10,17,16,14,3.50
2012,10,17,16,15,2.70
2012,10,17,16,16,2.30
2012,10,17,16,17,1.50
2012,10,17,16,18,0.90
2012,10,17,16,19,1.00
2012,10,17,16,20,0.30
2012,10,17,16,21,1.80
2012,10,17,16,22,1.30
2012,10,17,16,23,0.10
2012,10,17,16,24,1.60
2012,10,17,16,25,0.10
2012,10,17,16,26,0.20
2012,10,17,16,27,0.80
2012,10,17,16,28,3.00
2012,10,17,16,29,0.90
2012,10,17,16,30,2.10
2012,10,17,16,31,1.20
2012,10,17,16,32,2.10
2012,10,17,16,33,0.50
2012,10,17,16,34,0.30
2012,10,17,16,35,0.10
2012,10,17,16,36,1.20
2012,10,17,16,37,0.10
2012,10,17,16,38,0.70
2012,10,17,16,39,3.50
2012,10,17,16,40,2.00
2012,10,17,16,41,3.30
2012,10,17,16,42,4.30
2012,10,17,16,43,4.10
2012,10,17,16,44,6.20
2012,10,17,16,45,5.00
2012,10,17,16,46,4.60
2012,10,17,16,47,7.20
2012,10,17,16,48,6.30
2012,10,17,16,49,5.50
2012,10,17,16,50,5.60
2012,10,17,16,51,4.00
2012,10,17,16,52,1.50
2012,10,17,16,53,1.20
2012,10,17,16,54,1.90
2012,10,17,16,55,1.90
2012,10,17,16,56,1.70
2012,10,17,16,57,0.30
2012,10,17,16,58,0.00
2012,10,17,16,59,0.00
2012,10,17,17,00,0.20
2012,10,17,17,01,0.60
2012,10,17,17,02,0.10
2012,10,17,17,03,0.20
2012,10,17,17,04,1.40
2012,10,17,17,05,1.70
2012,10,17,17,06,2.00
2012,10,17,17,07,1.50
2012,10,17,17,08,0.80
2012,10,17,17,09,0.10
2012,10,17,17,10,0.50
2012,10,17,17,11,1.10
2012,10,17,17,12,0.20
2012,10,17,17,13,0.60
2012,10,17,17,14,1.00
2012,10,17,17,15,1.80
2012,10,17,17,16,1.90
2012,10,17,17,17,1.60
2012,10,17,17,18,1.00
2012,10,17,17,19,1.40
2012,10,17,17,20,0.40
2012,10,17,17,21,0.10
2012,10,17,17,22,0.10
2012,10,17,17,23,0.00
2012,10,17,17,24,0.00
2012,10,17,17,25,0.00
2012,10,17,17,26,0.10
2012,10,17,17,27,0.00
2012,10,17,17,28,0.10
2012,10,17,17,29,0.50
2012,10,17,17,30,0.50
2012,10,17,17,31,0.20
2012,10,17,17,32,0.20
2012,10,17,17,33,0.30
2012,10,17,17,34,0.20
2012,10,17,17,35,0.40
2012,10,17,17,36,0.30
2012,10,17,17,37,0.10
2012,10,17,17,38,0.10
2012,10,17,17,39,0.00
2012,10,17,17,40,0.00
2012,10,17,17,41,0.00
2012,10,17,17,42,0.10
2012,10,17,17,43,0.10
2012,10,17,17,44,0.30
2012,10,17,17,45,0.00
2012,10,17,17,46,0.20
2012,10,17,17,47,0.00
2012,10,17,17,48,0.10
2012,10,17,17,49,0.00
2012,10,17,17,50,0.00
2012,10,17,17,51,0.00
2012,10,17,17,52,0.00
2012,10,17,17,53,0.00
2012,10,17,17,54,0.00
2012,10,17,17,55,0.00
2012,10,17,17,56,0.00
2012,10,17,17,57,0.00
2012,10,17,17,58,0.00
2012,10,17,17,59,0.00
2012,10,17,18,00,0.00
2012,10,17,18,01,0.00
2012,10,17,18,02,0.00
2012,10,17,18,03,0.00
2012,10,17,18,04,0.10
2012,10,17,18,05,0.00